Weather History for Greenville, MS

Change the Weather History Date:

Thursday, June 13, 2013

  Actual Average Record
Temperature  
Mean Temperature 85 °F 79 °F  
Max Temperature 95 °F 89 °F 99 °F (1953)
Min Temperature 74 °F 69 °F 58 °F (1955)
Degree Days  
Heating Degree Days 0 0  
Month to date heating degree days 0 0  
Since 1 June heating degree days 0 0  
Since 1 July heating degree days 2695 2774  
Cooling Degree Days 20 14  
Month to date cooling degree days 171 161  
Year to date cooling degree days 454 483  
Since 1 June cooling degree days 171 161  
Growing Degree Days 33 (Base 50)    
Moisture  
Dew Point 74 °F    
Average Humidity 75    
Maximum Humidity 93    
Minimum Humidity 56    
Precipitation  
Precipitation 0.00 in 0.12 in 1.36 in (1973)
Month to date precipitation 1.25 1.45  
Year to date precipitation 25.76 25.71  
Sea Level Pressure  
Sea Level Pressure 29.95 in    
Wind  
Wind Speed 10 mph (WSW)    
Max Wind Speed 18 mph    
Max Gust Speed 24 mph    
Visibility 10 miles    
Events      
T = Trace of Precipitation, MM = Missing Value Source: NWS Daily Summary

Daily Weather History Graph

Daily Weather History Graph

Search for Another Location

Airport:

Trip Planner

Search our weather history database for the weather conditions in past years. The results will help you decide how hot, cold, wet, or windy it might be!

Date:

Astronomy

Jun. 13, 2013 Rise Set
Actual Time 5:53 AM CDT 8:14 PM CDT
Civil Twilight 5:24 AM CDT 8:43 PM CDT
Nautical Twilight 4:49 AM CDT 9:19 PM CDT
Astronomical Twilight 4:10 AM CDT 9:57 PM CDT
Moon 10:19 AM CDT (6/13) 11:34 PM CDT (6/13)
Length of Visible Light 15h 19m
Length of Day
14h 21m
Waxing Crescent, 22% of the Moon is Illuminated
Jun 13
Waxing Crescent
Jun 16
First Quarter
Jun 23
Full
Jun 29
Last Quarter
Jul 8
New

Hourly Weather History & Observations

Time (CDT) Temp. Heat Index Dew Point Humidity Pressure Visibility Wind Dir Wind Speed Gust Speed Precip Events Conditions
12:53 AM 75.0 °F - 72.0 °F 90% 30.00 in 10.0 mi SSW 4.6 mph - N/A   Clear
1:53 AM 75.9 °F - 72.0 °F 87% 29.99 in 10.0 mi SSW 6.9 mph - N/A   Clear
2:53 AM 75.0 °F - 72.0 °F 90% 29.99 in 9.0 mi SSW 5.8 mph - N/A   Clear
3:53 AM 77.0 °F - 73.0 °F 88% 29.98 in 10.0 mi SSW 6.9 mph - N/A   Clear
4:53 AM 78.1 °F - 73.0 °F 84% 29.98 in 10.0 mi SW 6.9 mph - N/A   Clear
5:53 AM 77.0 °F - 73.0 °F 88% 29.99 in 9.0 mi SW 6.9 mph - N/A   Clear
6:53 AM 78.1 °F - 73.9 °F 87% 30.01 in 8.0 mi WSW 9.2 mph - N/A   Clear
7:53 AM 82.0 °F 87.9 °F 73.9 °F 76% 30.01 in 10.0 mi WSW 9.2 mph - N/A   Clear
8:53 AM 84.0 °F 91.2 °F 73.9 °F 72% 30.02 in 10.0 mi West 12.7 mph - N/A   Clear
9:53 AM 88.0 °F 97.5 °F 75.0 °F 65% 30.02 in 10.0 mi WSW 15.0 mph - N/A   Clear
10:53 AM 89.1 °F 98.0 °F 73.9 °F 61% 30.01 in 10.0 mi West 15.0 mph - N/A   Clear
11:53 AM 91.0 °F 100.4 °F 73.9 °F 57% 29.99 in 10.0 mi West 16.1 mph - N/A   Partly Cloudy
12:53 PM 93.0 °F 104.6 °F 75.0 °F 56% 29.98 in 10.0 mi West 13.8 mph 20.7 mph N/A   Scattered Clouds
1:53 PM 93.0 °F 104.6 °F 75.0 °F 56% 29.96 in 10.0 mi West 10.4 mph 19.6 mph N/A   Partly Cloudy
2:53 PM 93.9 °F 105.4 °F 75.0 °F 54% 29.94 in 10.0 mi WSW 12.7 mph 19.6 mph N/A   Scattered Clouds
3:53 PM 93.9 °F 105.4 °F 75.0 °F 54% 29.92 in 10.0 mi WNW 11.5 mph - N/A   Scattered Clouds
4:53 PM 93.9 °F 105.4 °F 75.0 °F 54% 29.90 in 10.0 mi West 13.8 mph - N/A   Partly Cloudy
5:53 PM 91.9 °F 103.9 °F 75.9 °F 59% 29.88 in 10.0 mi West 10.4 mph - N/A   Mostly Cloudy
6:47 PM 73.4 °F - 71.6 °F 94% 29.81 in 10.0 mi WSW 12.7 mph - N/A   Clear
6:53 PM 91.0 °F 101.6 °F 75.0 °F 59% 29.87 in 10.0 mi West 9.2 mph - N/A   Clear
7:53 PM 89.1 °F 99.1 °F 75.0 °F 63% 29.88 in 10.0 mi West 6.9 mph - N/A   Clear
8:53 PM 84.9 °F 94.1 °F 75.9 °F 74% 29.87 in 10.0 mi WSW 5.8 mph - N/A   Partly Cloudy
9:53 PM 86.0 °F 96.0 °F 75.9 °F 72% 29.90 in 10.0 mi North 8.1 mph 17.3 mph N/A   Mostly Cloudy
10:53 PM 84.9 °F 88.2 °F 68.0 °F 57% 29.93 in 10.0 mi NNE 6.9 mph - N/A   Mostly Cloudy
11:53 PM 82.9 °F 85.4 °F 66.9 °F 58% 29.95 in 10.0 mi NE 10.4 mph - N/A   Scattered Clouds